Weather in Belgatoy

Russia / Chechen Republic     43°11′25″N   45°49′54″E
temp.,
°C
wind,
m/s
gust,
m/s
humid.,
%
clouds,
%
prec.,
mm/h
press.,
hPa
HPBL,
m
14 august, sun
sun1400:00+25sw12440 0.0 1007118
03:00+23sw22410 0.0 1007136
06:00+23sw12400 0.0 1007111
09:00+31n11260 0.0 1006634
12:00+36ne32220 0.0 10041454
15:00+39nne22170 0.0 10021855
18:00+37ne34190 0.0 1001535
21:00+29ssw11370 0.0 100469
15 august, mon
mon1500:00+26wsw24440 0.0 1004168
03:00+25s11420 0.0 100455
06:00+25wsw11390 0.0 100576
09:00+32nnw11270 0.0 1005644
12:00+37ne22220 0.0 10031427
15:00+41nne23140 0.0 10001936
18:00+38ne46170 0.0 1000458
21:00+30sw11310 0.0 100357
16 august, tue
tue1600:00+27sw23350 0.0 1004133
03:00+26ssw12370 0.0 100564
06:00+25sw12370 0.0 100687
09:00+33wnw33250 0.0 1007840
12:00+37wnw33210 0.0 10071886
15:00+39wnw32190 0.0 10062196
18:00+38w33220 0.0 1006746
21:00+30ssw22400 0.0 100872
17 august, wed
wed1700:00+28sw24420 0.0 1008133
03:00+27ssw25360 0.0 1009157
06:00+27sw25370 0.0 1010153
09:00+34wnw33270 0.0 1009983
12:00+38nne32220 0.0 10072102
15:00+40n33190 0.0 10052524
18:00+38n12200 0.0 1005319
21:00+31ssw22320 0.0 100545
18 august, thu
thu1800:00+28ssw23360 0.0 1006115
03:00+27sw23300 0.0 1006112
06:00+27ssw223017 0.0 1007102
09:00+34wnw22210 0.0 1006705
12:00+39ne22190 0.0 10052016
15:00+40nne32180 0.0 10032548
18:00+36ene67210 0.0 1003614
21:00+30ne013383 0.0 1005118